Location: ?ejeti?ky
(50.4060°N, 14.9016°E)
Time: 00:47:55
(UTC+00:00)

STARLINK-1282 - Pass Details

Date: 06 October 2020
Orbit: 549 x 551 km, 53.0° (Epoch: 27 October)

Event Time Altitude Azimuth Distance (km) Brightness Sun altitude
Exits shadow 03:54:08 18° 243° (WSW) 1,370 5.1 -12.7°
Maximum altitude 03:57:07 81° 157° (SSE) 561 3.6 -12.2°
Drops below altitude 10° 04:01:17 10° 70° (ENE) 1,829 7.7 -11.6°
Sets 04:03:31 0° 70° (ENE) 2,725 8.9 -11.2°
